C/2017 M4 ( ATLAS )

Japanese version
Home page
Updated on November 10, 2019

---------------------------------------------------------------------

* Profile

Discovery Date June 21, 2017
Magnitude 18.3 mag
Discoverer Asteroid Terrestrial-impact Last Alert System (ATLAS) Team

* Pictures

* Orbital Elements

Epoch 2019 Feb. 6.0 TT = JDT 2458520.5
T 2019 Jan. 18.18671 TT                                 Williams
q   3.2518051            (2000.0)            P               Q
z  -0.0007186      Peri.  167.62097     -0.34653815     -0.32822191
 +/-0.0000003      Node    65.86770     -0.92164442     +0.29349682
e   1.0023369      Incl.  105.65761     -0.17459346     -0.89784742
From 1568 observations 2017 June 16-2019 Sept. 12, mean residual 0".5.

* Finding Charts

* Magnitudes Graph

        m1 = 6.0 + 5 log d + 10.0 log r

---------------------------------------------------------------------

The orbital elements are published on M.P.E.C. 2019-V116.
The charts are made with StellaNavigator Ver.10 (AstroArts).
The magnitudes graphs are made with Comet for Windows.

---------------------------------------------------------------------

Copyright(C) Seiichi Yoshida (comet@aerith.net). All rights reserved.